User: anonymous   Login
Location: Caltech
(34.1382°N, 118.1253°W)
Time: 22:02:17
(UTC-07:00)
Language:

Cosmos 1508 Rocket - Orbit

View from above orbital plane
View from above orbital plane
View from above satellite
View from above satellite

Ground track
Ground track

The orbit data is extracted from the following two-line orbital elements,

1 14484U 83111B   15184.85241227  .00269289  28619-4  45002-3 0  9995
2 14484 082.8135 307.1155 0052163 294.7353 190.8847 16.00145932631820
Epoch (UTC): 03 July 2015 20:27:28
Eccentricity: 0.0052163
inclination: 82.8135°
perigee height: 239 km
apogee height: 309 km
right ascension of ascending node: 307.1155°
argument of perigee: 294.7353°
revolutions per day: 16.00145932
mean anomaly at epoch: 190.8847°
orbit number at epoch: 63182

The dashed part of the orbit path shows where the satellite is in the earth's shadow,  

DLR